Погода в Нижнем Унале

Россия / Республика Северная Осетия — Алания     42°51′33″N   44°08′50″E
В апреле 2022 года жителям России запретили посещать сайт meteo.paraplan.net по решению Генеральной прокуратуры. Аудитория сайта уменьшилась в 10 раз. Владельцы сайта не видят смысла в поддержке погодного сервера в таких условиях. Сайт будет закрыт в октябре.
темп.,
°C
ветер,
м/с
пор.,
м/с
влажн.,
%
обл.,
%
осадки,
мм/ч
давл.,
гПа
погр.,
м
3 октября, пн
пн300:00+5ю7882100 0.0 1013168
03:00+4ю7783100 0.0 1012130
06:00+4ю4489100 0.0 101387
09:00+6ююз2384100 0.0 1013354
12:00+8юз1383100 0.3 1014756
15:00+7зюз138676 0.6 1015483
18:00+5ю239331 0.1 101688
21:00+5ю337872 0.2 101764
4 октября, вт
вт400:00+5ю4585100 0.9 1016128
03:00+5ю569265 4.3 1016253
06:00+5ю689248 1.7 1016344
09:00+8ю687636 1.8 1016661
12:00+12ююз685914 0.2 10161190
15:00+12ююз495365 0.4 10161503
18:00+7ю43775 0.6 101941
21:00+6ю447895 0.6 102050
5 октября, ср
ср500:00+6ю55764 0.0 102168
03:00+5ю55761 0.0 102157
06:00+5ю557338 0.0 102253
09:00+11ю455335 0.0 1021563
12:00+9ююз577356 0.4 1023871
15:00+11ююз385743 0.5 10211022
18:00+7ю337934 0.3 102372
21:00+7ю2383100 1.6 102496
6 октября, чт
чт600:00+6ю338280 0.9 102450
03:00+5ю2286100 1.5 102357
06:00+3ю229439 0.6 102450
09:00+7ююз248969 1.7 1023384
12:00+7ююз358265 1.4 1022647
15:00+6юз238893 2.4 1022484
18:00+4ююз1293100 0.1 1024196
21:00+3ююз129575 0.1 1025171
7 октября, пт
пт700:00+3ю229250 0.0 1024147
03:00+2ююв229560 0.0 1025110
06:00+2ю229353 0.0 1025102
09:00+6ю138356 0.0 1023416
12:00+8ююз247560 0.0 1022668
15:00+7ююз237657 0.1 1022653
18:00+5ю338864 0.0 1023149
21:00+4ю448837 0.0 1024113